| time (UTC) | temp F | wind direction | speed knots | gust knots | rain 1hr in | rain 24hr in | rain mn in | humidity % | barometer mb |
| 20260504081520 | 45 | 236 | 0.0 | 0.0 | 0.00 | 0.00 | 0.00 | 48 | 999.3 |
| 20260504044546 | 51 | 270 | 0.0 | 0.0 | 0.00 | 0.00 | 0.00 | 37 | 1001.6 |
| 20260504043053 | 51 | 270 | 0.0 | 0.9 | 0.00 | 0.00 | 0.00 | 37 | 1001.8 |
| 20260504041546 | 53 | 270 | 0.0 | 0.9 | 0.00 | 0.00 | 0.00 | 35 | 1001.9 |
| 20260504040047 | 56 | 270 | 0.0 | 1.7 | 0.00 | 0.00 | 0.00 | 32 | 1002.1 |
| 20260504034552 | 57 | 270 | 0.0 | 1.7 | 0.00 | 0.00 | 0.00 | 30 | 1002.3 |
| 20260504033043 | 58 | 270 | 0.9 | 2.6 | 0.00 | 0.00 | 0.00 | 28 | 1002.5 |
| 20260504031544 | 58 | 268 | 3.5 | 4.3 | 0.00 | 0.00 | 0.00 | 28 | 1002.7 |
| 20260504030043 | 58 | 284 | 0.0 | 0.9 | 0.00 | 0.00 | 0.00 | 28 | 1002.6 |
| 20260504024548 | 59 | 279 | 0.9 | 4.3 | 0.00 | 0.00 | 0.00 | 26 | 1002.5 |
| 20260504023042 | 60 | 277 | 0.9 | 3.5 | 0.00 | 0.00 | 0.00 | 26 | 1002.4 |
| 20260504021542 | 61 | 269 | 1.7 | 5.2 | 0.00 | 0.00 | 0.00 | 25 | 1002.4 |
| 20260504020043 | 63 | 275 | 1.7 | 4.3 | 0.00 | 0.00 | 0.00 | 23 | 1002.3 |
| 20260504014541 | 64 | 265 | 5.2 | 7.8 | 0.00 | 0.00 | 0.00 | 21 | 1002.2 |
| 20260504013055 | 65 | 273 | 6.1 | 7.8 | 0.00 | 0.00 | 0.00 | 21 | 1002.1 |
| 20260504011539 | 67 | 277 | 5.2 | 8.7 | 0.00 | 0.00 | 0.00 | 18 | 1002.0 |
| 20260504010041 | 68 | 312 | 7.0 | 8.7 | 0.00 | 0.00 | 0.00 | 18 | 1001.9 |
| 20260504004537 | 70 | 269 | 5.2 | 8.7 | 0.00 | 0.00 | 0.00 | 18 | 1001.9 |
| 20260504003036 | 71 | 261 | 5.2 | 8.7 | 0.00 | 0.00 | 0.00 | 16 | 1001.8 |
| 20260504001540 | 72 | 289 | 5.2 | 11.3 | 0.00 | 0.00 | 0.00 | 15 | 1001.8 |
| 20260504000036 | 73 | 274 | 9.6 | 13.0 | 0.00 | 0.00 | 0.00 | 14 | 1001.8 |
| 20260503234635 | 74 | 331 | 3.5 | 11.3 | 0.00 | 0.00 | 0.00 | 12 | 1001.8 |
| 20260503233034 | 74 | 279 | 5.2 | 13.0 | 0.00 | 0.00 | 0.00 | 12 | 1001.8 |
| 20260503231534 | 74 | 29 | 7.8 | 16.5 | 0.00 | 0.00 | 0.00 | 11 | 1001.8 |
| 20260503230039 | 74 | 261 | 10.4 | 16.5 | 0.00 | 0.00 | 0.00 | 9 | 1001.8 |
| 20260503224534 | 75 | 355 | 7.8 | 13.0 | 0.00 | 0.00 | 0.00 | 9 | 1001.8 |
| 20260503223031 | 75 | 282 | 2.6 | 15.6 | 0.00 | 0.00 | 0.00 | 11 | 1001.7 |
| 20260503221532 | 75 | 271 | 9.6 | 15.6 | 0.00 | 0.00 | 0.00 | 10 | 1001.7 |
| 20260503220030 | 75 | 5 | 8.7 | 17.4 | 0.00 | 0.00 | 0.00 | 11 | 1001.6 |
| 20260503214537 | 75 | 273 | 7.8 | 16.5 | 0.00 | 0.00 | 0.00 | 12 | 1001.6 |
| 20260503213029 | 76 | 303 | 7.0 | 13.9 | 0.00 | 0.00 | 0.00 | 12 | 1001.6 |
| 20260503211528 | 74 | 331 | 11.3 | 17.4 | 0.00 | 0.00 | 0.00 | 12 | 1001.6 |
| 20260503210027 | 75 | 355 | 7.8 | 13.0 | 0.00 | 0.00 | 0.00 | 12 | 1001.8 |
| 20260503204525 | 74 | 315 | 7.0 | 16.5 | 0.00 | 0.00 | 0.00 | 14 | 1001.8 |
| 20260503203033 | 74 | 331 | 7.0 | 20.0 | 0.00 | 0.00 | 0.00 | 14 | 1002.0 |
| 20260503201524 | 75 | 355 | 8.7 | 15.6 | 0.00 | 0.00 | 0.00 | 14 | 1002.1 |
| 20260503200025 | 75 | 302 | 6.1 | 16.5 | 0.00 | 0.00 | 0.00 | 14 | 1002.1 |
| 20260503194520 | 74 | 327 | 9.6 | 18.2 | 0.00 | 0.00 | 0.00 | 15 | 1002.2 |
| 20260503193034 | 74 | 271 | 13.9 | 20.9 | 0.00 | 0.00 | 0.00 | 15 | 1002.1 |
| 20260503191538 | 74 | 271 | 7.0 | 15.6 | 0.00 | 0.00 | 0.00 | 16 | 1002.1 |
| 20260503190026 | 74 | 254 | 9.6 | 17.4 | 0.00 | 0.00 | 0.00 | 17 | 1002.1 |
| 20260503184516 | 74 | 248 | 11.3 | 20.9 | 0.00 | 0.00 | 0.00 | 16 | 1002.1 |
| 20260503183013 | 73 | 264 | 12.2 | 22.6 | 0.00 | 0.00 | 0.00 | 18 | 1002.3 |
| 20260503181511 | 73 | 360 | 5.2 | 15.6 | 0.00 | 0.00 | 0.00 | 19 | 1002.3 |
| 20260503180009 | 72 | 298 | 10.4 | 18.2 | 0.00 | 0.00 | 0.00 | 20 | 1002.4 |
| 20260503174504 | 70 | 252 | 9.6 | 19.1 | 0.00 | 0.00 | 0.00 | 23 | 1002.7 |
| 20260503173002 | 69 | 295 | 13.0 | 19.1 | 0.00 | 0.00 | 0.00 | 24 | 1002.9 |
| 20260503171559 | 68 | 246 | 11.3 | 19.1 | 0.00 | 0.00 | 0.00 | 28 | 1003.1 |
| 20260503170113 | 67 | 259 | 11.3 | 20.0 | 0.00 | 0.00 | 0.00 | 27 | 1003.2 |